| time (UTC) | temp C | wind direction | speed KPH | gust KPH | rain 1hr cm | rain 24hr cm | rain mn cm | humidity % | barometer mb |
| 20260508020034 | 9 | 0 | 0.0 | 0.0 | 0.00 | 0.00 | 0.00 | 81 | 1013.7 |
| 20260508014533 | 9 | 0 | 0.0 | 0.0 | 0.00 | 0.00 | 0.00 | 79 | 1013.7 |
| 20260508014530 | 9 | 248 | 0.0 | 0.0 | 0.00 | 0.00 | 0.00 | 79 | 1014.7 |
| 20260508013033 | 10 | 0 | 0.0 | 0.0 | 0.00 | 0.00 | 0.00 | 78 | 1013.6 |
| 20260508013027 | 10 | 248 | 0.0 | 0.0 | 0.00 | 0.00 | 0.00 | 79 | 1014.6 |
| 20260508011544 | 10 | 0 | 0.0 | 4.8 | 0.00 | 0.00 | 0.00 | 78 | 1013.7 |
| 20260508011526 | 10 | 248 | 0.0 | 4.8 | 0.00 | 0.00 | 0.00 | 79 | 1014.6 |
| 20260508010039 | 11 | 0 | 0.0 | 3.2 | 0.00 | 0.00 | 0.00 | 78 | 1013.8 |
| 20260508010026 | 11 | 259 | 0.0 | 3.2 | 0.00 | 0.00 | 0.00 | 78 | 1014.8 |
| 20260508004538 | 11 | 259 | 0.0 | 3.2 | 0.00 | 0.00 | 0.00 | 77 | 1013.7 |
| 20260508004521 | 11 | 259 | 0.0 | 1.6 | 0.00 | 0.00 | 0.00 | 78 | 1014.7 |
| 20260508003038 | 11 | 0 | 1.6 | 12.9 | 0.00 | 0.00 | 0.00 | 77 | 1013.6 |
| 20260508003020 | 11 | 234 | 1.6 | 11.3 | 0.00 | 0.00 | 0.00 | 78 | 1014.7 |
| 20260508001539 | 11 | 242 | 4.8 | 11.3 | 0.00 | 0.00 | 0.00 | 77 | 1013.7 |
| 20260508001518 | 11 | 245 | 4.8 | 11.3 | 0.00 | 0.00 | 0.00 | 77 | 1014.8 |
| 20260508000044 | 11 | 252 | 3.2 | 11.3 | 0.00 | 0.00 | 0.00 | 76 | 1013.8 |
| 20260508000016 | 11 | 252 | 3.2 | 9.7 | 0.00 | 0.00 | 0.00 | 77 | 1014.8 |
| 20260507234542 | 11 | 254 | 1.6 | 6.4 | 0.00 | 0.00 | 0.00 | 76 | 1013.8 |
| 20260507234514 | 11 | 254 | 1.6 | 4.8 | 0.00 | 0.00 | 0.00 | 76 | 1014.8 |
| 20260507233040 | 11 | 0 | 0.0 | 4.8 | 0.00 | 0.00 | 0.00 | 75 | 1013.6 |
| 20260507233014 | 11 | 252 | 0.0 | 4.8 | 0.00 | 0.00 | 0.00 | 76 | 1014.7 |
| 20260507231537 | 11 | 0 | 0.0 | 6.4 | 0.00 | 0.00 | 0.00 | 75 | 1013.6 |
| 20260507231517 | 11 | 233 | 0.0 | 6.4 | 0.00 | 0.00 | 0.00 | 75 | 1014.7 |
| 20260507230039 | 11 | 0 | 0.0 | 11.3 | 0.00 | 0.00 | 0.00 | 74 | 1013.6 |
| 20260507230010 | 11 | 189 | 0.0 | 11.3 | 0.00 | 0.00 | 0.00 | 74 | 1014.7 |
| 20260507224539 | 11 | 123 | 1.6 | 12.9 | 0.00 | 0.00 | 0.00 | 74 | 1013.4 |
| 20260507224508 | 11 | 138 | 1.6 | 12.9 | 0.00 | 0.00 | 0.00 | 74 | 1014.6 |
| 20260507223036 | 11 | 260 | 1.6 | 16.1 | 0.00 | 0.00 | 0.00 | 73 | 1013.2 |
| 20260507223008 | 11 | 238 | 1.6 | 16.1 | 0.00 | 0.00 | 0.00 | 74 | 1014.4 |
| 20260507221534 | 11 | 298 | 1.6 | 6.4 | 0.00 | 0.00 | 0.00 | 74 | 1013.2 |
| 20260507221508 | 11 | 290 | 0.0 | 8.0 | 0.00 | 0.00 | 0.00 | 74 | 1014.4 |
| 20260507220033 | 11 | 0 | 0.0 | 8.0 | 0.00 | 0.00 | 0.00 | 74 | 1013.1 |
| 20260507220006 | 11 | 284 | 0.0 | 8.0 | 0.00 | 0.00 | 0.00 | 74 | 1014.3 |
| 20260507214545 | 12 | 0 | 0.0 | 6.4 | 0.00 | 0.00 | 0.00 | 74 | 1013.1 |
| 20260507214506 | 12 | 289 | 0.0 | 6.4 | 0.00 | 0.00 | 0.00 | 74 | 1014.3 |
| 20260507213042 | 11 | 200 | 1.6 | 11.3 | 0.00 | 0.00 | 0.00 | 74 | 1013.0 |
| 20260507213009 | 12 | 176 | 1.6 | 11.3 | 0.00 | 0.00 | 0.00 | 74 | 1014.0 |
| 20260507211546 | 12 | 286 | 4.8 | 11.3 | 0.00 | 0.00 | 0.00 | 74 | 1012.9 |
| 20260507211505 | 12 | 180 | 4.8 | 9.7 | 0.00 | 0.00 | 0.00 | 74 | 1014.1 |
| 20260507210034 | 12 | 225 | 0.0 | 9.7 | 0.00 | 0.00 | 0.00 | 74 | 1012.7 |
| 20260507210007 | 12 | 225 | 0.0 | 6.4 | 0.00 | 0.00 | 0.00 | 74 | 1013.9 |
| 20260507204541 | 12 | 254 | 1.6 | 11.3 | 0.00 | 0.00 | 0.00 | 73 | 1012.6 |
| 20260507204508 | 12 | 254 | 1.6 | 11.3 | 0.00 | 0.00 | 0.00 | 73 | 1013.8 |
| 20260507203039 | 12 | 0 | 1.6 | 12.9 | 0.00 | 0.00 | 0.00 | 72 | 1012.4 |
| 20260507203003 | 12 | 247 | 1.6 | 12.9 | 0.00 | 0.00 | 0.00 | 72 | 1013.6 |
| 20260507201606 | 12 | 180 | 4.8 | 14.5 | 0.00 | 0.00 | 0.00 | 72 | 1013.5 |
| 20260507201539 | 12 | 273 | 4.8 | 12.9 | 0.00 | 0.00 | 0.00 | 72 | 1012.2 |
| 20260507200034 | 12 | 259 | 4.8 | 19.3 | 0.00 | 0.00 | 0.00 | 71 | 1012.2 |
| 20260507200002 | 12 | 263 | 4.8 | 12.9 | 0.00 | 0.00 | 0.00 | 72 | 1013.4 |
| 20260507194540 | 12 | 237 | 4.8 | 14.5 | 0.00 | 0.00 | 0.00 | 71 | 1012.1 |
| 20260507194503 | 12 | 265 | 6.4 | 14.5 | 0.00 | 0.00 | 0.00 | 71 | 1013.3 |
| 20260507193048 | 13 | 248 | 6.4 | 19.3 | 0.00 | 0.00 | 0.00 | 70 | 1011.9 |
| 20260507193001 | 13 | 248 | 6.4 | 19.3 | 0.00 | 0.00 | 0.00 | 70 | 1013.2 |
| 20260507191617 | 13 | 217 | 3.2 | 16.1 | 0.00 | 0.00 | 0.00 | 69 | 1013.1 |
| 20260507191540 | 13 | 244 | 4.8 | 17.7 | 0.00 | 0.00 | 0.00 | 68 | 1011.8 |
| 20260507190100 | 13 | 252 | 4.8 | 17.7 | 0.00 | 0.00 | 0.00 | 68 | 1013.0 |
| 20260507190040 | 13 | 251 | 4.8 | 17.7 | 0.00 | 0.00 | 0.00 | 68 | 1011.6 |
| 20260507184608 | 13 | 259 | 3.2 | 12.9 | 0.00 | 0.00 | 0.00 | 67 | 1012.8 |
| 20260507184535 | 13 | 259 | 4.8 | 12.9 | 0.00 | 0.00 | 0.00 | 66 | 1011.6 |
| 20260507183104 | 14 | 239 | 3.2 | 11.3 | 0.00 | 0.00 | 0.00 | 65 | 1012.8 |
| 20260507183039 | 14 | 245 | 3.2 | 11.3 | 0.00 | 0.00 | 0.00 | 64 | 1011.5 |
| 20260507181557 | 13 | 198 | 3.2 | 11.3 | 0.00 | 0.00 | 0.00 | 64 | 1012.8 |
| 20260507181540 | 13 | 192 | 4.8 | 12.9 | 0.00 | 0.00 | 0.00 | 63 | 1011.5 |
| 20260507180100 | 13 | 265 | 1.6 | 12.9 | 0.00 | 0.00 | 0.00 | 66 | 1012.6 |
| 20260507180040 | 13 | 265 | 1.6 | 12.9 | 0.00 | 0.00 | 0.00 | 66 | 1011.4 |
| 20260507174556 | 13 | 119 | 1.6 | 6.4 | 0.00 | 0.00 | 0.00 | 73 | 1012.6 |
| 20260507173057 | 14 | 119 | 0.0 | 4.8 | 0.00 | 0.00 | 0.00 | 74 | 1012.6 |
| 20260507173036 | 14 | 0 | 0.0 | 4.8 | 0.00 | 0.00 | 0.00 | 73 | 1011.5 |
| 20260507171555 | 13 | 120 | 0.0 | 6.4 | 0.00 | 0.00 | 0.00 | 76 | 1012.6 |
| 20260507171545 | 13 | 0 | 0.0 | 8.0 | 0.00 | 0.00 | 0.00 | 75 | 1011.4 |
| 20260507170056 | 13 | 194 | 1.6 | 8.0 | 0.00 | 0.00 | 0.00 | 75 | 1012.7 |
| 20260507170039 | 13 | 128 | 1.6 | 9.7 | 0.00 | 0.00 | 0.00 | 74 | 1011.4 |
| 20260507164617 | 13 | 142 | 1.6 | 4.8 | 0.00 | 0.00 | 0.00 | 74 | 1012.6 |
| 20260507164539 | 13 | 137 | 0.0 | 8.0 | 0.00 | 0.00 | 0.00 | 74 | 1011.5 |
| 20260507163054 | 14 | 126 | 1.6 | 8.0 | 0.00 | 0.00 | 0.00 | 73 | 1012.7 |
| 20260507163039 | 14 | 130 | 1.6 | 11.3 | 0.00 | 0.00 | 0.00 | 72 | 1011.4 |
| 20260507161556 | 14 | 140 | 1.6 | 8.0 | 0.00 | 0.00 | 0.00 | 70 | 1012.6 |
| 20260507161540 | 14 | 148 | 3.2 | 9.7 | 0.00 | 0.00 | 0.00 | 70 | 1011.4 |
| 20260507160052 | 15 | 140 | 3.2 | 14.5 | 0.00 | 0.00 | 0.00 | 68 | 1012.5 |
| 20260507160048 | 15 | 156 | 3.2 | 14.5 | 0.00 | 0.00 | 0.00 | 67 | 1011.3 |
| 20260507154552 | 15 | 138 | 3.2 | 9.7 | 0.00 | 0.00 | 0.00 | 59 | 1012.6 |
| 20260507154531 | 15 | 161 | 1.6 | 9.7 | 0.00 | 0.00 | 0.00 | 57 | 1011.3 |
| 20260507153051 | 15 | 216 | 1.6 | 14.5 | 0.00 | 0.00 | 0.00 | 57 | 1012.5 |
| 20260507153039 | 15 | 205 | 1.6 | 14.5 | 0.00 | 0.00 | 0.00 | 57 | 1011.4 |
| 20260507151550 | 15 | 181 | 0.0 | 9.7 | 0.00 | 0.00 | 0.00 | 58 | 1012.6 |
| 20260507151539 | 15 | 0 | 1.6 | 9.7 | 0.00 | 0.00 | 0.00 | 56 | 1011.4 |
| 20260507150049 | 15 | 234 | 3.2 | 8.0 | 0.00 | 0.00 | 0.00 | 55 | 1012.7 |
| 20260507150038 | 15 | 186 | 1.6 | 12.9 | 0.00 | 0.00 | 0.00 | 55 | 1011.5 |
| 20260507144547 | 15 | 121 | 3.2 | 12.9 | 0.00 | 0.00 | 0.00 | 56 | 1012.8 |
| 20260507144540 | 15 | 116 | 3.2 | 12.9 | 0.00 | 0.00 | 0.00 | 56 | 1011.5 |
| 20260507143101 | 15 | 240 | 3.2 | 14.5 | 0.00 | 0.00 | 0.00 | 57 | 1012.9 |
| 20260507143037 | 15 | 165 | 4.8 | 14.5 | 0.00 | 0.00 | 0.00 | 56 | 1011.7 |
| 20260507141604 | 15 | 158 | 1.6 | 9.7 | 0.00 | 0.00 | 0.00 | 61 | 1012.9 |
| 20260507141537 | 15 | 159 | 3.2 | 11.3 | 0.00 | 0.00 | 0.00 | 60 | 1011.7 |
| 20260507140045 | 14 | 114 | 3.2 | 14.5 | 0.00 | 0.00 | 0.00 | 70 | 1013.0 |
| 20260507134544 | 15 | 117 | 3.2 | 14.5 | 0.00 | 0.00 | 0.00 | 69 | 1013.1 |
| 20260507134533 | 15 | 43 | 3.2 | 14.5 | 0.00 | 0.00 | 0.00 | 68 | 1011.7 |
| 20260507133044 | 15 | 174 | 1.6 | 6.4 | 0.00 | 0.00 | 0.00 | 62 | 1013.1 |
| 20260507133037 | 15 | 155 | 1.6 | 20.9 | 0.00 | 0.00 | 0.00 | 59 | 1011.8 |
| 20260507131607 | 16 | 0 | 0.0 | 11.3 | 0.00 | 0.00 | 0.00 | 51 | 1011.7 |
| 20260507131552 | 16 | 170 | 0.0 | 8.0 | 0.00 | 0.00 | 0.00 | 52 | 1013.0 |
| 20260507130042 | 15 | 224 | 1.6 | 9.7 | 0.00 | 0.00 | 0.00 | 53 | 1013.1 |
| 20260507130039 | 15 | 300 | 3.2 | 11.3 | 0.00 | 0.00 | 0.00 | 52 | 1011.7 |
| 20260507124540 | 15 | 273 | 3.2 | 12.9 | 0.00 | 0.00 | 0.00 | 53 | 1011.8 |
| 20260507124536 | 15 | 215 | 3.2 | 12.9 | 0.00 | 0.00 | 0.00 | 54 | 1013.3 |
| 20260507123041 | 15 | 0 | 1.6 | 12.9 | 0.00 | 0.00 | 0.00 | 54 | 1011.9 |
| 20260507123033 | 15 | 199 | 0.0 | 12.9 | 0.00 | 0.00 | 0.00 | 55 | 1013.3 |
| 20260507121541 | 15 | 213 | 3.2 | 8.0 | 0.00 | 0.00 | 0.00 | 54 | 1012.1 |
| 20260507121530 | 15 | 209 | 3.2 | 8.0 | 0.00 | 0.00 | 0.00 | 54 | 1013.3 |
| 20260507120041 | 15 | 0 | 0.0 | 3.2 | 0.00 | 0.00 | 0.00 | 54 | 1012.2 |
| 20260507120028 | 15 | 194 | 0.0 | 3.2 | 0.00 | 0.00 | 0.00 | 55 | 1013.4 |
| 20260507114534 | 15 | 280 | 0.0 | 4.8 | 0.00 | 0.00 | 0.00 | 56 | 1012.2 |
| 20260507114529 | 15 | 280 | 0.0 | 4.8 | 0.00 | 0.00 | 0.00 | 56 | 1013.4 |
| 20260507113100 | 13 | 0 | 0.0 | 3.2 | 0.00 | 0.00 | 0.00 | 57 | 1012.3 |
| 20260507113023 | 13 | 324 | 0.0 | 3.2 | 0.00 | 0.00 | 0.00 | 57 | 1013.5 |
| 20260507111539 | 13 | 0 | 0.0 | 4.8 | 0.00 | 0.00 | 0.00 | 59 | 1012.3 |
| 20260507111523 | 13 | 349 | 0.0 | 3.2 | 0.00 | 0.00 | 0.00 | 60 | 1013.6 |
| 20260507110041 | 13 | 323 | 0.0 | 4.8 | 0.00 | 0.00 | 0.00 | 61 | 1012.4 |
| 20260507110023 | 13 | 323 | 0.0 | 4.8 | 0.00 | 0.00 | 0.00 | 61 | 1013.4 |
| 20260507104546 | 13 | 281 | 1.6 | 6.4 | 0.00 | 0.00 | 0.00 | 60 | 1012.4 |
| 20260507104525 | 13 | 281 | 0.0 | 6.4 | 0.00 | 0.00 | 0.00 | 60 | 1013.4 |
| 20260507103036 | 13 | 0 | 1.6 | 8.0 | 0.00 | 0.00 | 0.00 | 59 | 1012.5 |
| 20260507103021 | 13 | 288 | 1.6 | 8.0 | 0.00 | 0.00 | 0.00 | 59 | 1013.6 |
| 20260507101536 | 14 | 344 | 0.0 | 9.7 | 0.00 | 0.00 | 0.00 | 59 | 1012.6 |
| 20260507101521 | 14 | 323 | 0.0 | 9.7 | 0.00 | 0.00 | 0.00 | 60 | 1013.7 |
| 20260507100043 | 13 | 0 | 1.6 | 6.4 | 0.00 | 0.00 | 0.00 | 60 | 1012.7 |
| 20260507100018 | 13 | 56 | 1.6 | 6.4 | 0.00 | 0.00 | 0.00 | 61 | 1013.6 |
| 20260507094537 | 13 | 0 | 0.0 | 3.2 | 0.00 | 0.00 | 0.00 | 60 | 1012.7 |
| 20260507094516 | 13 | 323 | 0.0 | 1.6 | 0.00 | 0.00 | 0.00 | 60 | 1013.8 |
| 20260507093041 | 13 | 0 | 0.0 | 4.8 | 0.00 | 0.00 | 0.00 | 61 | 1012.7 |
| 20260507093017 | 13 | 340 | 0.0 | 1.6 | 0.00 | 0.00 | 0.00 | 61 | 1014.0 |
| 20260507091540 | 13 | 0 | 0.0 | 6.4 | 0.00 | 0.00 | 0.00 | 62 | 1012.8 |
| 20260507091521 | 13 | 311 | 0.0 | 4.8 | 0.00 | 0.00 | 0.00 | 63 | 1013.9 |
| 20260507090035 | 13 | 42 | 0.0 | 1.6 | 0.00 | 0.00 | 0.00 | 59 | 1012.9 |
| 20260507090015 | 13 | 42 | 0.0 | 1.6 | 0.00 | 0.00 | 0.00 | 60 | 1014.0 |
| 20260507084551 | 13 | 0 | 0.0 | 3.2 | 0.00 | 0.00 | 0.00 | 61 | 1013.0 |
| 20260507084516 | 13 | 9 | 0.0 | 3.2 | 0.00 | 0.00 | 0.00 | 61 | 1014.0 |
| 20260507083039 | 13 | 17 | 1.6 | 9.7 | 0.00 | 0.00 | 0.00 | 59 | 1012.9 |
| 20260507083014 | 13 | 17 | 1.6 | 9.7 | 0.00 | 0.00 | 0.00 | 60 | 1014.2 |
| 20260507081540 | 13 | 0 | 0.0 | 4.8 | 0.00 | 0.00 | 0.00 | 58 | 1013.0 |
| 20260507081511 | 13 | 57 | 0.0 | 3.2 | 0.00 | 0.00 | 0.00 | 58 | 1014.2 |
| 20260507080035 | 12 | 0 | 0.0 | 6.4 | 0.00 | 0.00 | 0.00 | 60 | 1013.0 |
| 20260507080008 | 12 | 326 | 0.0 | 6.4 | 0.00 | 0.00 | 0.00 | 60 | 1014.2 |
| 20260507074534 | 12 | 217 | 0.0 | 4.8 | 0.00 | 0.00 | 0.00 | 60 | 1012.9 |
| 20260507074507 | 12 | 217 | 0.0 | 3.2 | 0.00 | 0.00 | 0.00 | 60 | 1014.1 |
| 20260507073040 | 12 | 0 | 0.0 | 3.2 | 0.00 | 0.00 | 0.00 | 60 | 1013.0 |
| 20260507073007 | 12 | 138 | 0.0 | 3.2 | 0.00 | 0.00 | 0.00 | 61 | 1014.2 |
| 20260507071544 | 12 | 0 | 0.0 | 3.2 | 0.00 | 0.00 | 0.00 | 61 | 1012.9 |
| 20260507071504 | 12 | 139 | 0.0 | 3.2 | 0.00 | 0.00 | 0.00 | 61 | 1014.1 |
| 20260507070105 | 11 | 139 | 0.0 | 0.0 | 0.00 | 0.00 | 0.00 | 72 | 1014.1 |
| 20260507070054 | 11 | 0 | 0.0 | 0.0 | 0.00 | 0.00 | 0.00 | 73 | 1012.8 |
| 20260507064657 | 10 | 139 | 0.0 | 1.6 | 0.00 | 0.00 | 0.00 | 77 | 1014.0 |
| 20260507064544 | 10 | 0 | 0.0 | 4.8 | 0.00 | 0.00 | 0.00 | 77 | 1012.7 |
| 20260507063058 | 10 | 223 | 0.0 | 1.6 | 0.00 | 0.00 | 0.00 | 80 | 1013.9 |
| 20260507063033 | 10 | 0 | 0.0 | 1.6 | 0.00 | 0.00 | 0.00 | 79 | 1012.7 |
| 20260507061549 | 9 | 223 | 0.0 | 0.0 | 0.00 | 0.00 | 0.00 | 80 | 1014.0 |
| 20260507061541 | 9 | 0 | 0.0 | 0.0 | 0.00 | 0.00 | 0.00 | 80 | 1012.7 |
| 20260507060107 | 9 | 223 | 0.0 | 0.0 | 0.00 | 0.00 | 0.00 | 80 | 1014.0 |
| 20260507060043 | 9 | 0 | 0.0 | 0.0 | 0.00 | 0.00 | 0.00 | 80 | 1012.7 |
| 20260507054548 | 9 | 223 | 0.0 | 1.6 | 0.00 | 0.00 | 0.00 | 80 | 1013.9 |
| 20260507054541 | 9 | 0 | 0.0 | 1.6 | 0.00 | 0.00 | 0.00 | 80 | 1012.7 |
| 20260507053041 | 9 | 223 | 0.0 | 0.0 | 0.00 | 0.00 | 0.00 | 80 | 1013.9 |
| 20260507053038 | 9 | 0 | 0.0 | 0.0 | 0.00 | 0.00 | 0.00 | 79 | 1012.6 |
| 20260507051553 | 9 | 225 | 0.0 | 0.0 | 0.00 | 0.00 | 0.00 | 80 | 1013.9 |
| 20260507051534 | 9 | 0 | 0.0 | 0.0 | 0.00 | 0.00 | 0.00 | 79 | 1012.7 |
| 20260507050044 | 9 | 223 | 0.0 | 0.0 | 0.00 | 0.00 | 0.00 | 79 | 1013.7 |
| 20260507044550 | 9 | 0 | 0.0 | 0.0 | 0.00 | 0.00 | 0.00 | 78 | 1012.5 |
| 20260507044537 | 9 | 223 | 0.0 | 0.0 | 0.00 | 0.00 | 0.00 | 79 | 1013.7 |
| 20260507043040 | 10 | 0 | 0.0 | 0.0 | 0.00 | 0.00 | 0.00 | 78 | 1012.6 |
| 20260507043035 | 9 | 223 | 0.0 | 0.0 | 0.00 | 0.00 | 0.00 | 78 | 1013.7 |
| 20260507041544 | 10 | 0 | 0.0 | 0.0 | 0.00 | 0.00 | 0.00 | 77 | 1012.7 |
| 20260507041533 | 10 | 223 | 0.0 | 0.0 | 0.00 | 0.00 | 0.00 | 78 | 1013.7 |
| 20260507040036 | 10 | 0 | 0.0 | 0.0 | 0.00 | 0.00 | 0.00 | 76 | 1012.6 |
| 20260507040032 | 10 | 223 | 0.0 | 0.0 | 0.00 | 0.00 | 0.00 | 77 | 1013.7 |
| 20260507034539 | 10 | 0 | 0.0 | 1.6 | 0.00 | 0.00 | 0.00 | 75 | 1012.6 |
| 20260507034530 | 10 | 223 | 0.0 | 1.6 | 0.00 | 0.00 | 0.00 | 75 | 1013.6 |
| 20260507033040 | 10 | 0 | 0.0 | 1.6 | 0.00 | 0.00 | 0.00 | 75 | 1012.7 |
| 20260507033029 | 10 | 223 | 0.0 | 1.6 | 0.00 | 0.00 | 0.00 | 76 | 1013.6 |
| 20260507031539 | 10 | 0 | 0.0 | 1.6 | 0.00 | 0.00 | 0.00 | 76 | 1012.7 |
| 20260507031528 | 10 | 223 | 0.0 | 1.6 | 0.00 | 0.00 | 0.00 | 76 | 1013.7 |
| 20260507030042 | 10 | 0 | 0.0 | 0.0 | 0.00 | 0.00 | 0.00 | 75 | 1012.7 |
| 20260507030029 | 10 | 223 | 0.0 | 0.0 | 0.00 | 0.00 | 0.00 | 76 | 1013.8 |
| 20260507024543 | 10 | 0 | 0.0 | 0.0 | 0.00 | 0.00 | 0.00 | 75 | 1012.8 |
| 20260507024527 | 10 | 223 | 0.0 | 0.0 | 0.00 | 0.00 | 0.00 | 76 | 1013.9 |
| 20260507023034 | 10 | 0 | 0.0 | 1.6 | 0.00 | 0.00 | 0.00 | 75 | 1012.8 |
| 20260507023025 | 10 | 223 | 0.0 | 0.0 | 0.00 | 0.00 | 0.00 | 76 | 1014.0 |
| 20260507021547 | 10 | 0 | 0.0 | 4.8 | 0.00 | 0.00 | 0.00 | 75 | 1012.9 |
| 20260507021522 | 10 | 234 | 0.0 | 4.8 | 0.00 | 0.00 | 0.00 | 75 | 1014.1 |